Zurück zum Katalog

SL-8 DEB

AktivLEO
NORAD 3749·DEBRIS·🇷🇺 Russia

Gestartet Mar 15, 1965 von Baikonur Cosmodrome

Loading…

Nächste Überflüge (nächste 24 Stunden)

TLE

AktuellSource: Space-Track

Epoche: Sep 14, 2026, 06:25 UTC

1 03749U 65020EU  26257.26803314  .00000607  00000-0  25981-3 0  9996
2 03749  56.1107 209.6534 0440771 232.8558 123.1392 13.94017822813088

Verfolge SL-8 DEB in Echtzeit mit AllMySat

Download on the App Store